Kecskemet, Hungary

5:36 AM CEST on September 01, 2016 (GMT +0200)
Kecskemet

Weather History for LHKE - December, 2012

Change the Weather History Date:

Tuesday, December 4, 2012

  Actual Average (LHBP) Record (LHBP)
Temperature  
Mean Temperature 32 °F -  
Max Temperature 39 °F 39 °F 50 °F (2002)
Min Temperature 24 °F 29 °F 17 °F (2013)
Degree Days  
Heating Degree Days 34    
Moisture  
Dew Point 28 °F    
Average Humidity 86    
Maximum Humidity 100    
Minimum Humidity 61    
Precipitation  
Precipitation 0.00 in - - ()
Sea Level Pressure  
Sea Level Pressure 29.72 in    
Wind  
Wind Speed 6 mph ()    
Max Wind Speed 13 mph    
Max Gust Speed -    
Visibility 3.1 miles    
Events Rain , Snow    
Averages and records for this station are not official NWS values.
T = Trace of Precipitation, MM = Missing Value Source: Averaged Metar Reports

Daily Weather History Graph

Daily Weather History Graph

Search for Another Location

Airport or City:

Trip Planner

Search our weather history database for the weather conditions in past years. The results will help you decide how hot, cold, wet, or windy it might be!

Date:

Astronomy

Dec. 04, 2012 Rise Set
Actual Time 7:09 AM CET 3:53 PM CET
Civil Twilight 6:34 AM CET 4:27 PM CET
Nautical Twilight 5:56 AM CET 5:06 PM CET
Astronomical Twilight 5:19 AM CET 5:42 PM CET
Moon 9:35 PM CET (12/4) 10:42 AM CET (12/4)
Length of Visible Light 9h 53m
Length of Day
8h 43m
Waning Gibbous, 72% of the Moon is Illuminated
Dec 4
Waning Gibbous
Dec 6
Last Quarter
Dec 13
New
Dec 20
First Quarter
Dec 28
Full

Hourly Weather History & Observations

Time (CET) Temp. Windchill Dew Point Humidity Pressure Visibility Wind Dir Wind Speed Gust Speed Precip Events Conditions
12:15 AM 28.4 °F 23.4 °F 23.0 °F 80% 29.86 in - West 4.5 mph - N/A   Clear
12:45 AM 26.6 °F 19.2 °F 23.0 °F 86% 29.86 in - West 6.7 mph - N/A   Clear
1:15 AM 28.4 °F 21.4 °F 23.0 °F 80% 29.86 in - West 6.7 mph - N/A   Clear
1:45 AM 26.6 °F 19.2 °F 23.0 °F 86% 29.86 in - West 6.7 mph - N/A   Clear
2:15 AM 28.4 °F 21.4 °F 23.0 °F 80% 29.86 in - West 6.7 mph - N/A   Clear
2:45 AM 28.4 °F 21.4 °F 24.8 °F 86% 29.83 in - West 6.7 mph - N/A   Clear
3:15 AM 28.4 °F 21.4 °F 23.0 °F 80% 29.83 in - West 6.7 mph - N/A   Clear
3:45 AM 26.6 °F 19.2 °F 23.0 °F 86% 29.83 in - WSW 6.7 mph - N/A   Clear
4:15 AM 26.6 °F - 23.0 °F 86% 29.83 in - WSW 2.2 mph - N/A   Clear
4:45 AM 24.8 °F 19.2 °F 23.0 °F 93% 29.83 in - WSW 4.5 mph - N/A   Clear
5:15 AM 24.8 °F - 23.0 °F 93% 29.83 in - SSW 2.2 mph - N/A   Clear
5:45 AM - - - N/A% - 6.2 mi South 4.5 mph - N/A   Clear
6:15 AM 24.8 °F 19.2 °F 23.0 °F 93% 29.80 in - SW 4.5 mph - N/A   Clear
6:45 AM 24.8 °F 19.2 °F 23.0 °F 93% 29.80 in 5.0 mi SSW 4.5 mph - N/A   Unknown
7:15 AM 26.6 °F 21.3 °F 24.8 °F 93% 29.80 in 5.0 mi South 4.5 mph - N/A   Unknown
7:45 AM 28.4 °F 23.4 °F 24.8 °F 86% 29.80 in 5.0 mi South 4.5 mph - N/A   Unknown
8:15 AM 28.4 °F 23.4 °F 26.6 °F 93% 29.80 in - South 4.5 mph - N/A   Clear
8:45 AM - - - N/A% - 6.2 mi South 8.9 mph - N/A   Overcast
9:15 AM 32.0 °F 25.7 °F 26.6 °F 80% 29.77 in - South 6.7 mph - N/A   Clear
9:45 AM 33.8 °F 26.5 °F 26.6 °F 75% 29.77 in - South 8.9 mph - N/A   Clear
10:15 AM 33.8 °F 26.5 °F 26.6 °F 75% 29.77 in - SSE 8.9 mph - N/A   Clear
10:45 AM 35.6 °F 27.7 °F 26.6 °F 70% 29.74 in - SSE 11.2 mph - N/A   Clear
11:15 AM 35.6 °F 27.7 °F 26.6 °F 70% 29.74 in - SSE 11.2 mph - N/A   Clear
11:45 AM - - - N/A% - 6.2 mi South 11.2 mph - N/A Rain Light Rain
12:15 PM 37.4 °F 29.1 °F 26.6 °F 65% 29.71 in - South 13.4 mph - N/A   Clear
12:45 PM 39.2 °F 32.2 °F 26.6 °F 61% 29.71 in - South 11.2 mph - N/A   Clear
1:15 PM 39.2 °F 32.2 °F 26.6 °F 61% 29.68 in - South 11.2 mph - N/A   Clear
1:45 PM 37.4 °F 29.9 °F 28.4 °F 70% 29.68 in - South 11.2 mph - N/A   Clear
2:15 PM 37.4 °F 30.9 °F 28.4 °F 70% 29.68 in - SSE 8.9 mph - N/A   Clear
2:45 PM - - - N/A% - 6.2 mi South 11.2 mph - N/A   Overcast
3:15 PM 37.4 °F 30.9 °F 30.2 °F 75% 29.65 in 6.2 mi SSE 8.9 mph - N/A   Overcast
3:28 PM 35.6 °F 28.7 °F 30.2 °F 81% 29.65 in 6.2 mi SSE 8.9 mph - N/A Rain Light Rain
3:45 PM 35.6 °F 28.7 °F 32.0 °F 87% 29.65 in 6.2 mi SSE 8.9 mph - N/A Rain , Snow Light Rain
4:15 PM 35.6 °F 28.7 °F 32.0 °F 87% 29.65 in 5.0 mi South 8.9 mph - N/A Rain , Snow Light Rain
4:45 PM 35.6 °F 28.7 °F 32.0 °F 87% 29.65 in 4.3 mi South 8.9 mph - N/A Rain , Snow Snow
4:58 PM 35.6 °F 28.7 °F 32.0 °F 87% 29.62 in 3.1 mi South 8.9 mph - N/A Snow Snow
5:15 PM - - - N/A% - 6.2 mi South 11.2 mph - N/A   Overcast
5:45 PM - - - N/A% - 1.9 mi SSE 6.7 mph - N/A Rain Rain Showers
6:15 PM 33.8 °F 27.9 °F 32.0 °F 93% 29.62 in 1.2 mi SSE 6.7 mph - N/A Snow Snow
6:29 PM 32.0 °F 25.7 °F 32.0 °F 100% 29.62 in 0.9 mi SSE 6.7 mph - N/A Snow Snow
6:45 PM 32.0 °F 25.7 °F 32.0 °F 100% 29.62 in 0.6 mi SSE 6.7 mph - N/A Snow Snow
6:50 PM - - - N/A% - 0.9 mi SSE 6.7 mph - N/A   Overcast
7:00 PM - - - N/A% - 0.9 mi SSE 6.7 mph - N/A   Overcast
7:15 PM 32.0 °F 25.7 °F 32.0 °F 100% 29.62 in 0.6 mi SSE 6.7 mph - N/A Snow Snow
7:45 PM 32.0 °F 25.7 °F 32.0 °F 100% 29.62 in 0.6 mi SSE 6.7 mph - N/A Snow Snow
8:15 PM 32.0 °F 27.6 °F 32.0 °F 100% 29.59 in 0.6 mi SSE 4.5 mph - N/A Snow Snow
8:45 PM - - - N/A% - 1.9 mi SSE 4.5 mph - N/A   Overcast
9:15 PM 32.0 °F 27.6 °F 32.0 °F 100% 29.59 in 0.7 mi SSE 4.5 mph - N/A Snow Light Snow
9:45 PM 32.0 °F 27.6 °F 32.0 °F 100% 29.59 in 0.7 mi SSE 4.5 mph - N/A Snow Light Snow
10:15 PM 32.0 °F 27.6 °F 32.0 °F 100% 29.56 in 0.7 mi SE 4.5 mph - N/A Snow Light Snow
10:45 PM 32.0 °F 27.6 °F 32.0 °F 100% 29.56 in 0.9 mi SE 4.5 mph - N/A Snow Light Snow
11:15 PM 32.0 °F - 32.0 °F 100% 29.56 in 0.9 mi SE 2.2 mph - N/A Snow Light Snow
11:45 PM - - - N/A% - 1.9 mi North - - N/A   Overcast